Showing default

HJS-4A, 58691

Orbit data source: Space-Track

HJS-4A, 58691 is a payload satellite owned by Zhongguo Xingwang (CN) in LEO that was launched on Sat, 30 Dec 2023 UTC via a CHANG ZHENG 2C/YZ-1S launch vehicle from the Jiuquan Satellite Launch Center, China (JSC). Payload-class satellites include a variety of spacecraft equipped with specific instruments for various scientific and technological missions. These include communications satellites like Starlink; space stations such as the ISS; scientific satellites like the Hubble; Earth observation satellites from companies like Planet Labs, Umbra, and HawkEye 360; GPS; miniature CubeSats for education and research; and military/defense satellites.

Loading next visibility...
Identifier
58691, 2023-212A
Orbit
LEO
Country
Flag of CNCN / PRC
Related business
Manufacturer
CAST
Mission
Operational Civil Communications
Bus & Motor
Unknown
Mass
~300 kg wet, ~300 kg dry
Launch date (UTC)
2023-12-30 (2 years ago)
Launch vehicle
CHANG ZHENG 2C/YZ-1S
Launch site
Jiuquan Satellite Launch Center, China (JSC)
Object type
Payload
Rocket body
Debris
Shape & HBR
Box + 2 Pan, 1.3 m
Radar Cross Section
2.320 m², Large (>1 m²)

Expand to show TLE details & history
Last TLE update: 2 days ago

TLE from 2 days ago
0 HJS-4A
1 58691U 23212A   26171.43025752 -.00000101  00000-0  48835-4 0  9999
2 58691  50.0018 331.8576 0001195 127.9244 232.1742 13.41457562121680
Epoch: 2026-06-20T10:19Z
TLE epoch observation values (Epoch: 2026-06-20T10:19:34.249Z)
Latitude
0.00001°
Longitude
-91.68009°
Altitude
1,104.912 km
Speed
7.301 km/s
True Right ascension
22h 07m 25s
True Declination
0° 00' 00"
Sunlit
Object was in daylight at epoch
Visualization orbit readout
Latitude
Unknown
Longitude
Unknown
Altitude
Unknown
Speed
Unknown
Apparent Right ascension
Unknown
Apparent Declination
Unknown
Sunlit
N/A
Visualization observer readout
Local Sidereal Time
21:31:12
Azimuth
Unknown
Elevation
Unknown
Doppler factor
Unknown
Orbital elements
Apogee altitude
1,105.458 km
Perigee altitude
1,103.67 km
Semi-major axis
7,482.701 km
Eccentricity
0.00012
Inclination
50.0018°
RAAN
331.8576°
Arg. of periapsis
127.9244°
True anomaly
232.16338°
Mean anomaly
232.1742°
Eccentric anomaly
232.16879°
Mean motion
3.35317 °/min
Orbital period
107.36 mins
BSTAR
0.000048835
Loading maneuver chart data...
Computing Atmospheric mass density...
Loading historical data...
Loading historical data...
Loading historical data...
Loading historical data...
Loading historical data...
Loading historical data...
Loading historical data...
Other satellites on launch #212 in the year 2023 (2023-12-30 UTC)

Documentation

Showing up to 5 results
|